sat.trackr.live / text

‹ back to catalog

STARLINK-35832

NORAD 66495 · 2025-263L

PAYLOAD ACTIVE UNKNOWN

§ Identity

Operator
Country
US
Launch date
2025-11-15
Launch site
AFETR
Launch vehicle
Mass (kg)
RCS (m²)

Purposes: comms

External: N2YO · Heavens-Above · Gunter

§ Orbital elements

Epoch: 2026-09-20T21:24:13.087296Z

Period
94.27 min
Inclination
43.0045°
Eccentricity
0.0001999
Mean motion
15.27585635 rev/d
Perigee alt
481.7 km
Apogee alt
484.4 km
Semi-major
6,861.2 km
B*
4.6290e-4
RAAN
328.2048°
Arg perigee
271.9118°
Mean anomaly
88.1504°
Rev number
4,875

§ Raw data

STARLINK-358321 66495U 25263L   26263.89181814  .00012500  00000+0  46290-3 0  99982 66495  43.0045 328.2048 0001999 271.9118  88.1504 15.27585635 48759

JSON: /api/v1/satellites/66495 · /tle

For live sub-satellite position, see the globe view (requires WebGL).

§ Visibility from observer

Set your observer location to see the next 7 days of passes ≥ 10°. The values pass through the URL so the page stays shareable.

No JS? Fill the form by hand. The geolocation button needs JavaScript.